Vertical_Velocity
-5 -3 -3 -8 -4 -1 -1 1 2 2 -0 -1 3 -1 0 1 0 6 -3 -2 4 4 -0 -1 -1 0 2
-2 3 -4 3 -1 -5 -2 0 -1 2 0 2 3 5 2 1 3 2 0 7 3 4 -2 4 0 -1 -0
0 1 1 2 -0 -2 -3 -1 -3 1 2 -2 -1 0 0 -1 -2 -3 -3 -4 -1 5 3 0 -0 -1 1
-1 -2 2 3 -1 -2 -2 6 -4 -5 -1 2 6 3 2 -0 -1 4 -1 7 2 -2 -1 0 3 0 -2
0 -1 -6 -0 -3 1 -4 -3 -5 -1 -8 39 32 -3 7 -0 -1 3 2 1 -3 -1 -2 -1 2 -2 -1
4 -6 19 0 2 -4 -6 -6 -6 4 -0 1 3 -11 15 -11 2 -0 -2 -1 -0 -2 1 -1 -2 -2 8
-3 -8 8 0 -3 -4 -4 -6 14 1 -8 -6 4 -2 -1 7 0 -8 -0 1 -3 -4 -3 -1 -1 -1 0
1 7 2 6 -5 -1 -3 1 2 -2 1 4 5 1 -5 14 -2 -0 -2 -3 -2 1 1 -2 -2 -3 0
-1 3 1 3 -0 -1 -5 2 -0 -4 -0 -3 -1 9 -1 1 0 -6 1 1 3 4 -0 -1 -1 -3 -2
-1 3 -7 -1 0 -1 1 -5 1 -3 -0 -2 9 8 1 -0 -3 -4 -4 -0 -1 -1 -1 -3 -2 -4 -4
-3 0 -1 -5 -1 -5 -1 6 -3 3 -2 2 1 9 -2 -2 -2 6 2 -1 -0 1 -1 6 5 2 5
-0 -0 -6 1 2 2 2 -2 4 1 4 0 -5 8 -1 2 4 5 3 4 3 3 1 4 6 8 7
-1 -1 -2 2 -1 0 -0 1 1 1 0 -1 -2 -0 -4 -2 -2 -1 -0 2 -0 -1 -2 1 4 -6 -1
0 1 -0 -0 0 1 -1 0 1 3 1 -1 -1 1 1 0 -1 0 0 -3 -8 -1 3 -2 -2 -3 -1
3 0 1 1 1 -1 1 -0 0 2 2 1 2 1 1 -0 -1 -1 -0 0 2 2 1 -0 -1 -1 -0
-0 1 -0 1 1 1 1 1 -0 2 1 -0 -0 0 -0 0 1 1 2 3 2 3 4 3 2 0 -2
-1 1 2 -1 2 3 2 2 0 0 -1 0 -0 0 0 -2 0 0 -1 -3 -2 -2 -2 -1 1 -4 1
Height
2995 2998 3000 3002 3004 3005 3004 3005 3007 3011 3014 3018 3020 3021 3024 3026 3029 3033 3036 3039 3041 3043 3045 3048 3048 3050 3053
2987 2986 2989 2991 2991 2992 2993 2993 2995 2999 3003 3005 3008 3010 3012 3014 3018 3021 3024 3027 3030 3031 3033 3037 3038 3040 3041
2976 2978 2978 2981 2981 2981 2982 2982 2983 2986 2989 2992 2994 2997 3000 3003 3005 3008 3012 3015 3018 3021 3024 3026 3028 3030 3030
2967 2969 2970 2972 2970 2971 2971 2969 2971 2974 2974 2978 2981 2983 2986 2991 2995 2997 3001 3003 3007 3011 3013 3015 3016 3018 3020
2959 2961 2961 2962 2962 2962 2961 2961 2962 2961 2963 2962 2967 2970 2972 2975 2980 2985 2989 2993 2996 2999 3002 3003 3005 3006 3008
2951 2952 2952 2954 2954 2954 2953 2953 2951 2953 2953 2954 2955 2957 2961 2964 2969 2975 2979 2982 2984 2986 2987 2991 2992 2995 2997
2943 2943 2944 2945 2946 2946 2945 2945 2945 2945 2946 2945 2947 2949 2952 2955 2958 2964 2968 2971 2972 2973 2976 2979 2982 2984 2986
2935 2935 2935 2936 2937 2937 2937 2937 2937 2939 2940 2941 2944 2945 2947 2949 2953 2955 2958 2961 2962 2963 2966 2968 2970 2971 2972
2926 2926 2927 2928 2930 2930 2929 2929 2930 2933 2935 2936 2938 2940 2941 2943 2944 2946 2948 2950 2952 2953 2955 2958 2958 2958 2958
2915 2916 2918 2919 2919 2920 2922 2923 2923 2925 2927 2929 2931 2933 2933 2935 2936 2938 2940 2942 2943 2943 2946 2948 2949 2950 2950
2910 2910 2911 2911 2911 2912 2913 2914 2916 2917 2920 2921 2922 2924 2926 2927 2929 2930 2932 2934 2935 2937 2939 2940 2941 2943 2945
2907 2907 2906 2906 2906 2907 2907 2909 2909 2911 2912 2914 2917 2918 2920 2920 2921 2922 2924 2926 2927 2930 2930 2931 2933 2935 2938
2904 2904 2904 2904 2904 2904 2905 2905 2906 2906 2906 2908 2910 2912 2913 2914 2916 2918 2920 2922 2924 2926 2927 2929 2929 2931 2935
2899 2900 2900 2900 2901 2901 2901 2902 2902 2902 2903 2905 2907 2908 2910 2912 2914 2915 2917 2918 2920 2921 2923 2925 2928 2930 2931
2893 2895 2895 2896 2897 2898 2898 2899 2900 2900 2900 2902 2903 2905 2906 2908 2910 2911 2912 2913 2915 2917 2919 2920 2922 2924 2925
2888 2889 2890 2891 2893 2894 2895 2895 2897 2897 2898 2899 2900 2901 2902 2904 2905 2906 2908 2909 2910 2912 2913 2915 2916 2917 2918
2883 2883 2885 2887 2888 2889 2890 2891 2892 2893 2893 2894 2894 2895 2896 2897 2899 2900 2901 2902 2903 2904 2905 2907 2907 2908 2909